This demonstration page uses our WeatherBlox Daily Observations layout. Learn more.

Left ArrowRight Arrow

Hourly Observations for April 11, 2015

Temp ( °F °C ) Dew Point ( °F °C ) Humidity (%) Winds ( mph kmh ) Pressure ( in mb ) Visibility ( mi km ) Precip ( " mm )
12:53 am 00:53 Clear 49 9.4 29 -1.7 46 46 S 6 9 30.09 1019 10 16 0.00 0.00
1:53 am 01:53 Clear 48 8.9 28 -2.2 46 46 S 7 11 30.08 1019 10 16 0.00 0.00
2:53 am 02:53 Clear 47 8.3 28 -2.2 48 48 S 6 9 30.07 1018 10 16 0.00 0.00
3:53 am 03:53 Clear 47 8.3 28 -2.2 48 48 S 7 11 30.07 1018 10 16 0.00 0.00
4:53 am 04:53 Clear 45 7.2 28 -2.2 52 52 S 6 9 30.07 1018 10 16 0.00 0.00
5:53 am 05:53 Clear 44 6.7 28 -2.2 53 53 SSE 6 9 30.06 1018 10 16 0.00 0.00
6:53 am 06:53 Clear 41 5 29 -1.7 62 62 SE 6 9 30.08 1019 10 16 0.00 0.00
7:53 am 07:53 Sunny 45 7.2 30 -1.1 56 56 SSE 9 15 30.08 1019 10 16 0.00 0.00
8:53 am 08:53 Sunny 50 10 33 0.6 52 52 S 8 13 30.07 1018 10 16 0.00 0.00
9:53 am 09:53 Sunny 60 15.6 36 2.2 41 41 SSW 17 28 30.05 1018 10 16 0.00 0.00
10:53 am 10:53 Sunny 63 17.2 37 2.8 38 38 S 14 22 30.02 1017 10 16 0.00 0.00
11:53 am 11:53 Sunny 67 19.4 38 3.3 35 35 S 16 26 30.00 1016 10 16 0.00 0.00
12:53 pm 12:53 Mostly Sunny 69 20.6 38 3.3 32 32 S 18 30 29.97 1015 10 16 0.00 0.00
1:53 pm 13:53 Partly Cloudy 70 21.1 37 2.8 30 30 S 17 28 29.95 1014 10 16 0.00 0.00
2:53 pm 14:53 Partly Cloudy 71 21.7 38 3.3 30 30 S 17 28 29.92 1013 10 16 0.00 0.00
3:53 pm 15:53 Mostly Cloudy 73 22.8 38 3.3 28 28 S 21 33 29.88 1012 10 16 0.00 0.00
4:53 pm 16:53 Partly Cloudy 72 22.2 36 2.2 27 27 S 16 26 29.85 1011 10 16 0.00 0.00
5:53 pm 17:53 Partly Cloudy 72 22.2 38 3.3 29 29 S 15 24 29.84 1011 10 16 0.00 0.00
6:53 pm 18:53 Partly Cloudy 70 21.1 41 5 35 35 S 15 24 29.83 1010 10 16 0.00 0.00
7:53 pm 19:53 Partly Cloudy 67 19.4 44 6.7 44 44 S 14 22 29.83 1010 10 16 0.00 0.00
8:53 pm 20:53 Mostly Cloudy 62 16.7 43 6.1 50 50 S 12 19 29.84 1011 10 16 0.00 0.00
9:53 pm 21:53 Mostly Cloudy 60 15.6 43 6.1 53 53 S 13 20 29.85 1011 10 16 0.00 0.00
10:53 pm 22:53 Clear 58 14.4 44 6.7 60 60 S 13 20 29.84 1011 10 16 0.00 0.00
11:53 pm 23:53 Clear 57 13.9 44 6.7 62 62 S 14 22 29.82 1010 10 16 0.00 0.00

Powered by AerisWeather